Location: Chamberlains
(47.5264°N, 52.9333°W)
Time: 10:05:04
(UTC+00:00)

Tiangong - Visible Passes

Search period start: 09 August 2022 00:00
Search period end: 19 August 2022 00:00
Orbit: 379 x 387 km, 41.5° (Epoch: 08 August)

Date Brightness Start Highest point End Pass type
(mag) Time Alt. Az. Time Alt. Az. Time Alt. Az.
09 Aug -0.3 07:19:43 14° SW 07:20:36 15° SSW 07:22:33 10° SSE visible
16 Aug 0.2 00:18:03 10° SSW 00:18:29 12° SSW 00:18:29 12° SSW visible
16 Aug 0.1 23:18:52 10° S 23:19:58 11° SSE 23:21:05 10° SE visible
17 Aug 0.6 00:53:31 10° SW 00:53:41 11° SW 00:53:41 11° SW visible
17 Aug -0.7 23:53:32 10° SW 23:55:58 20° SSE 23:56:27 20° SSE visible
